{"data":{"norad_id":59271,"epoch":"2026-09-21T16:40:47.203392Z","epoch_age_seconds":58931,"freshness":"FRESH","line1":"1 59271U 24050T   26264.69499078  .00010801  00000+0  31384-3 0  9998","line2":"2 59271  53.1595 333.8195 0003426  22.0681 338.0469 15.36023168140799","mean_motion":15.36023168,"eccentricity":0.0003426,"inclination_deg":53.1595,"raan_deg":333.8195,"arg_perigee_deg":22.0681,"mean_anomaly_deg":338.0469,"bstar":0.00031384,"rev_number":14079,"period_min":93.748585958828,"perigee_km":455.54107128037,"apogee_km":460.22511224725,"semimajor_km":6836.0200917638,"source":"CELESTRAK","updated_at":"2026-09-22T09:00:48.873921Z"}}